Hourly Data Report for October 11, 2014

All times are specified in Local Standard Time (LST). Add 1 hour to adjust for Daylight Saving Time where and when it is observed.

KITCHENER/WATERLOO
ONTARIO

43°27'39.000" N
80°22'43.000" W
321.60 m
6144239
71368
YKF

Download Data

Hourly Data (October 2014)
Hourly Data Report for October 11, 2014
Temp Definition
°C
Dew Point Temp Definition
°C
Rel Hum Definition
%
Wind Dir Definition
10's deg

Wind Spd Definition
km/h
Visibility Definition
km
Stn Press Definition
kPa
Hmdx Definition


Wind Chill Definition


Weather Definition


TIME
00:00 Legend Double Dagger 0.3 0.0 98   0 16.1 98.21     LegendNANA
01:00 Legend Double Dagger 0.0 -0.3 98   0 4.0 98.19     Fog
02:00 Legend Double Dagger 0.1 0.0 99 LegendMM 4 9.7 98.19     Fog
03:00 Legend Double Dagger -1.0 -1.1 99   0 9.7 98.14     Fog
04:00 Legend Double Dagger 0.2 0.1 99   0 6.4 98.17     Fog
05:00 Legend Double Dagger 0.3 0.2 99 34 5 14.5 98.20     LegendNANA
06:00 Legend Double Dagger 0.0 -0.1 99 29 5 4.8 98.23   -2 Fog
07:00 Legend Double Dagger -0.1 -0.2 99 34 8 4.8 98.25   -3 Fog
08:00 Legend Double Dagger 2.9 2.5 97 31 8 16.1 98.32     LegendNANA
09:00 Legend Double Dagger 7.3 4.3 81 30 9 16.1 98.39     LegendNANA
10:00 Legend Double Dagger 9.5 3.6 66 33 21 16.1 98.40     LegendNANA
11:00 Legend Double Dagger 10.3 2.6 59 34 18 16.1 98.36     LegendNANA
12:00 Legend Double Dagger 11.6 1.9 51 29 24 16.1 98.35     LegendNANA
13:00 Legend Double Dagger 11.3 0.8 48 33 13 16.1 98.35     LegendNANA
14:00 Legend Double Dagger 11.8 0.9 47 29 21 16.1 98.30     LegendNANA
15:00 Legend Double Dagger 12.2 0.7 45 30 26 16.1 98.33     LegendNANA
16:00 Legend Double Dagger 11.0 -0.4 45 33 26 16.1 98.31     LegendNANA
17:00 Legend Double Dagger 9.7 -0.1 50 32 18 16.1 98.36     LegendNANA
18:00 Legend Double Dagger 6.2 0.1 65 32 9 16.1 98.41     LegendNANA
19:00 Legend Double Dagger 4.6 0.4 74 31 11 16.1 98.45     LegendNANA
20:00 Legend Double Dagger 3.2 0.4 82 31 9 16.1 98.48     LegendNANA
21:00 Legend Double Dagger 2.4 0.7 89   0 16.1 98.54     LegendNANA
22:00 Legend Double Dagger 0.6 0.0 96   0 16.1 98.55     LegendNANA
23:00 Legend Double Dagger 1.2 0.6 96 26 4 16.1 98.54     LegendNANA

Notes on Data Quality.

Legend

  • E = Estimated
  • M = Missing
  • NA = Not Available
  • ‡ = Partner data that is not subject to review by the National Climate Archives
Date modified: